Location: ???????
(55.4362°N, 38.1183°E)
Time: 00:48:05
(UTC+00:00)

Lacrosse 4 Rocket - Pass Details

Date: 17 June 2021
Orbit: 543 x 614 km, 68.0° (Epoch: 05 August)

Event Time Altitude Azimuth Distance (km) Brightness Sun altitude
Rises 20:04:12 0° 306° (NW) 2,796 5.9 -9.1°
Reaches altitude 10° 20:07:17 10° 329° (NNW) 1,880 5.6 -9.3°
Maximum altitude 20:09:48 15° 6° (N) 1,553 4.7 -9.4°
Drops below altitude 10° 20:12:18 10° 44° (NE) 1,855 4.4 -9.5°
Sets 20:15:18 0° 67° (ENE) 2,736 5.0 -9.6°
